{"data":{"norad_id":69169,"epoch":"2026-09-20T03:04:52.552128Z","epoch_age_seconds":59069,"freshness":"FRESH","line1":"1 69169U 26111X   26263.12838602  .00009810  00000+0  30085-3 0  9997","line2":"2 69169  53.1588  67.3201 0000737 205.1801 154.9166 15.34424060 18848","mean_motion":15.3442406,"eccentricity":7.37e-5,"inclination_deg":53.1588,"raan_deg":67.3201,"arg_perigee_deg":205.1801,"mean_anomaly_deg":154.9166,"bstar":0.00030085,"rev_number":1884,"period_min":93.846286534376,"perigee_km":462.12756509573,"apogee_km":463.1358944065,"semimajor_km":6840.7687297511,"source":"CELESTRAK","updated_at":"2026-09-20T09:00:44.093773Z"}}